SV2BZQ-1 Weather Reports


Display with metric or nautical units.
time (UTC)temp
F
wind
direction
speed
MPH
gust
MPH
rain 1hr
in
rain 24hr
in
rain mn
in
humidity
%
barometer
mb
20260902150514 88 138 2.0 6.0 0.00 0.00 0.00 51 1012.5
20260902145427 87 181 1.0 10.0 0.00 0.00 0.00 56 1012.3
20260902145248 87 154 1.0 6.0 0.00 0.00 0.00 57 1012.3
20260902145123 87 107 1.0 6.0 0.00 0.00 0.00 57 1012.3
20260902143947 86 138 2.0 7.0 0.00 0.00 0.00 56 1012.3
20260902143825 86 128 2.0 6.0 0.00 0.00 0.00 56 1012.3
20260902143648 86 128 2.0 6.0 0.00 0.00 0.00 57 1012.3
20260902143507 86 144 2.0 6.0 0.00 0.00 0.00 58 1012.3
20260902142904 86 164 2.0 6.0 0.00 0.00 0.00 59 1012.3
20260902142614 86 124 2.0 6.0 0.00 0.00 0.00 59 1012.3
20260902142447 86 138 2.0 6.0 0.00 0.00 0.00 61 1012.6
20260902141854 86 121 2.0 8.0 0.00 0.00 0.00 63 1012.6
20260902141135 87 123 2.0 7.0 0.00 0.00 0.00 65 1012.6
20260902141003 87 141 2.0 7.0 0.00 0.00 0.00 64 1012.7
20260902135744 86 158 2.0 7.0 0.00 0.00 0.00 64 1012.7
20260902135604 86 148 2.0 7.0 0.00 0.00 0.00 65 1012.8
20260902134526 86 144 3.0 12.0 0.00 0.00 0.00 66 1012.8
20260902134324 87 112 3.0 8.0 0.00 0.00 0.00 66 1012.8
20260902134145 86 134 3.0 8.0 0.00 0.00 0.00 65 1012.8
20260902133814 87 138 3.0 7.0 0.00 0.00 0.00 66 1012.9
20260902133601 87 123 3.0 7.0 0.00 0.00 0.00 66 1012.9
20260902133029 88 136 2.0 8.0 0.00 0.00 0.00 65 1012.9
20260902132907 88 128 2.0 8.0 0.00 0.00 0.00 65 1012.9
20260902132742 88 113 3.0 8.0 0.00 0.00 0.00 64 1012.9
20260902131451 88 127 3.0 7.0 0.00 0.00 0.00 64 1013.1
20260902131326 87 136 3.0 7.0 0.00 0.00 0.00 63 1013.1
20260902130744 87 140 3.0 7.0 0.00 0.00 0.00 63 1013.4
20260902130229 87 119 3.0 7.0 0.00 0.00 0.00 63 1013.4
20260902130053 87 119 3.0 8.0 0.00 0.00 0.00 64 1013.4
20260902125928 87 110 3.0 8.0 0.00 0.00 0.00 64 1013.4
20260902125318 86 155 3.0 8.0 0.00 0.00 0.00 65 1013.7
20260902125055 86 131 3.0 8.0 0.00 0.00 0.00 67 1013.7
20260902124806 86 131 3.0 8.0 0.00 0.00 0.00 68 1013.7
20260902124643 85 130 4.0 8.0 0.00 0.00 0.00 69 1013.7
20260902124502 85 140 4.0 8.0 0.00 0.00 0.00 70 1013.7
20260902123358 85 120 4.0 8.0 0.00 0.00 0.00 68 1013.9
20260902123237 85 119 4.0 8.0 0.00 0.00 0.00 68 1013.9
20260902123059 85 147 4.0 8.0 0.00 0.00 0.00 67 1013.9
20260902122659 86 128 4.0 7.0 0.00 0.00 0.00 66 1013.9
20260902121951 86 121 3.0 7.0 0.00 0.00 0.00 65 1014.1
20260902121829 86 114 3.0 7.0 0.00 0.00 0.00 63 1014.1
20260902121654 86 160 3.0 7.0 0.00 0.00 0.00 62 1014.1
20260902121059 87 145 2.0 6.0 0.00 0.00 0.00 60 1014.1
20260902120558 88 171 1.0 6.0 0.00 0.00 0.00 60 1014.3
20260902120423 88 150 1.0 5.0 0.00 0.00 0.00 59 1014.3
20260902120301 88 161 1.0 5.0 0.00 0.00 0.00 58 1014.3
20260902115512 89 151 1.0 5.0 0.00 0.00 0.00 58 1014.4
20260902115207 89 119 0.0 5.0 0.00 0.00 0.00 58 1014.4
20260902115035 89 151 0.0 2.0 0.00 0.00 0.00 58 1014.4
20260902114908 89 196 0.0 3.0 0.00 0.00 0.00 58 1014.4
20260902114355 88 126 0.0 3.0 0.00 0.00 0.00 60 1014.4
20260902114011 88 86 0.0 6.0 0.00 0.00 0.00 61 1014.6
20260902113613 87 76 1.0 6.0 0.00 0.00 0.00 62 1014.6
20260902113454 87 83 1.0 6.0 0.00 0.00 0.00 62 1014.6
20260902113255 86 86 2.0 6.0 0.00 0.00 0.00 62 1014.6
20260902112355 86 85 2.0 7.0 0.00 0.00 0.00 64 1014.8
20260902112220 86 99 2.0 7.0 0.00 0.00 0.00 64 1014.8
20260902112055 86 103 2.0 7.0 0.00 0.00 0.00 64 1014.8
20260902111918 86 95 2.0 7.0 0.00 0.00 0.00 63 1014.8
20260902111700 86 92 2.0 7.0 0.00 0.00 0.00 63 1014.8
20260902111521 86 92 2.0 5.0 0.00 0.00 0.00 63 1014.8
20260902110952 86 102 2.0 5.0 0.00 0.00 0.00 63 1014.9
20260902110831 86 116 1.0 5.0 0.00 0.00 0.00 62 1014.9
20260902110703 86 112 1.0 3.0 0.00 0.00 0.00 62 1014.9
20260902105635 86 117 1.0 3.0 0.00 0.00 0.00 62 1014.9
20260902105509 86 127 1.0 3.0 0.00 0.00 0.00 62 1014.9
20260902105342 86 126 1.0 3.0 0.00 0.00 0.00 62 1014.9
20260902104127 87 119 0.0 2.0 0.00 0.00 0.00 60 1015.0
20260902104001 87 97 0.0 2.0 0.00 0.00 0.00 60 1015.0
20260902103630 87 114 0.0 1.0 0.00 0.00 0.00 59 1015.0
20260902102800 86 119 0.0 2.0 0.00 0.00 0.00 60 1015.2
20260902102656 86 119 0.0 2.0 0.00 0.00 0.00 60 1015.2
20260902102541 86 119 0.0 2.0 0.00 0.00 0.00 61 1015.2
20260902102433 86 114 0.0 2.0 0.00 0.00 0.00 61 1015.2
20260902102043 87 121 0.0 1.0 0.00 0.00 0.00 60 1015.2
20260902101904 87 117 0.0 2.0 0.00 0.00 0.00 60 1015.2
20260902101346 87 128 0.0 2.0 0.00 0.00 0.00 62 1015.3
20260902101218 87 121 0.0 2.0 0.00 0.00 0.00 63 1015.3
20260902101047 87 92 1.0 3.0 0.00 0.00 0.00 63 1015.3
20260902100724 86 76 1.0 3.0 0.00 0.00 0.00 62 1015.3
20260902100342 85 32 1.0 3.0 0.00 0.00 0.00 60 1015.3
20260902100002 86 37 1.0 3.0 0.00 0.00 0.00 60 1015.4
20260902095843 86 40 0.0 3.0 0.00 0.00 0.00 61 1015.4
20260902095721 86 42 0.0 3.0 0.00 0.00 0.00 61 1015.4
20260902095544 86 41 0.0 3.0 0.00 0.00 0.00 61 1015.4
20260902095321 86 30 0.0 3.0 0.00 0.00 0.00 62 1015.4
20260902094527 85 45 2.0 6.0 0.00 0.00 0.00 61 1015.3
20260902094409 85 30 2.0 6.0 0.00 0.00 0.00 60 1015.3
20260902094157 85 20 2.0 6.0 0.00 0.00 0.00 60 1015.3
20260902093635 85 31 2.0 7.0 0.00 0.00 0.00 60 1015.3
20260902093217 85 31 2.0 7.0 0.00 0.00 0.00 61 1015.3
20260902093100 85 25 2.0 7.0 0.00 0.00 0.00 61 1015.3
20260902092943 84 1 3.0 7.0 0.00 0.00 0.00 62 1015.3
20260902092753 84 11 3.0 6.0 0.00 0.00 0.00 62 1015.3
20260902092600 84 32 2.0 6.0 0.00 0.00 0.00 62 1015.3
20260902091749 84 6 3.0 6.0 0.00 0.00 0.00 65 1015.3
20260902091529 84 23 3.0 6.0 0.00 0.00 0.00 65 1015.3
20260902091358 84 14 2.0 6.0 0.00 0.00 0.00 66 1015.3
20260902090400 85 37 1.0 3.0 0.00 0.00 0.00 67 1015.4
20260902090246 84 11 1.0 3.0 0.00 0.00 0.00 67 1015.4
20260902090104 84 23 1.0 3.0 0.00 0.00 0.00 67 1015.4
20260902085906 84 11 1.0 3.0 0.00 0.00 0.00 68 1015.4
20260902085029 84 45 1.0 6.0 0.00 0.00 0.00 69 1015.4
20260902084846 84 359 1.0 6.0 0.00 0.00 0.00 69 1015.4
20260902084700 83 13 2.0 7.0 0.00 0.00 0.00 70 1015.4
20260902084054 83 4 5.0 8.0 0.00 0.00 0.00 69 1015.4
20260902083547 82 17 6.0 8.0 0.00 0.00 0.00 69 1015.3
20260902083418 82 17 5.0 8.0 0.00 0.00 0.00 70 1015.3
20260902083256 82 27 5.0 8.0 0.00 0.00 0.00 71 1015.3
20260902082849 82 18 5.0 8.0 0.00 0.00 0.00 73 1015.3
20260902082329 82 353 5.0 8.0 0.00 0.00 0.00 75 1015.2
20260902082128 82 38 5.0 8.0 0.00 0.00 0.00 77 1015.2
20260902081954 82 354 5.0 8.0 0.00 0.00 0.00 78 1015.2
20260902081225 81 0 4.0 8.0 0.00 0.00 0.00 80 1015.0
20260902080830 81 13 4.0 7.0 0.00 0.00 0.00 80 1015.0
20260902080701 81 27 4.0 7.0 0.00 0.00 0.00 81 1015.0
20260902080532 81 13 4.0 8.0 0.00 0.00 0.00 82 1015.0
20260902075732 81 10 5.0 8.0 0.00 0.00 0.00 82 1015.0
20260902075419 81 0 5.0 8.0 0.00 0.00 0.00 83 1015.0
20260902075301 80 8 5.0 8.0 0.00 0.00 0.00 82 1015.0
20260902075131 80 16 5.0 8.0 0.00 0.00 0.00 82 1015.0
20260902074042 80 27 3.0 8.0 0.00 0.00 0.00 83 1015.0
20260902073905 80 13 3.0 7.0 0.00 0.00 0.00 83 1015.0
20260902073731 80 16 2.0 6.0 0.00 0.00 0.00 83 1015.0
20260902072506 81 20 3.0 8.0 0.00 0.00 0.00 84 1014.9
20260902072327 81 23 3.0 8.0 0.00 0.00 0.00 84 1014.9
20260902072112 81 23 2.0 7.0 0.00 0.00 0.00 84 1014.9
20260902071713 81 10 2.0 7.0 0.00 0.00 0.00 84 1014.9
20260902071045 80 1 3.0 7.0 0.00 0.00 0.00 84 1014.9
20260902070858 80 3 3.0 7.0 0.00 0.00 0.00 84 1014.9
20260902070442 80 309 3.0 7.0 0.00 0.00 0.00 85 1014.9
20260902065807 80 17 3.0 7.0 0.00 0.00 0.00 85 1014.9
20260902065648 80 357 2.0 7.0 0.00 0.00 0.00 85 1014.9
20260902065515 80 18 2.0 7.0 0.00 0.00 0.00 85 1014.9
20260902065329 80 357 2.0 7.0 0.00 0.00 0.00 85 1014.9
20260902065113 80 35 3.0 7.0 0.00 0.00 0.00 85 1014.9
20260902064413 80 20 3.0 7.0 0.00 0.00 0.00 86 1014.9
20260902064301 80 354 3.0 7.0 0.00 0.00 0.00 86 1014.9
20260902064101 80 344 4.0 7.0 0.00 0.00 0.00 86 1014.9
20260902063906 79 13 4.0 7.0 0.00 0.00 0.00 87 1014.9
20260902062949 79 8 1.0 5.0 0.00 0.00 0.00 88 1014.9
20260902062829 79 0 0.0 3.0 0.00 0.00 0.00 88 1014.9
20260902061326 78 20 0.0 0.0 0.00 0.00 0.00 90 1014.9
20260902060515 78 20 0.0 2.0 0.00 0.00 0.00 90 1014.9
20260902060034 77 0 1.0 5.0 0.00 0.00 0.00 90 1014.9
20260902055921 77 21 1.0 5.0 0.00 0.00 0.00 89 1014.9
20260902054727 77 0 1.0 4.0 0.00 0.00 0.00 88 1014.8
20260902054613 77 32 1.0 3.0 0.00 0.00 0.00 88 1014.8
20260902053943 77 16 0.0 3.0 0.00 0.00 0.00 88 1014.8
20260902053348 76 299 1.0 3.0 0.00 0.00 0.00 87 1014.5
20260902053200 76 305 1.0 5.0 0.00 0.00 0.00 87 1014.5
20260902052542 76 16 1.0 6.0 0.00 0.00 0.00 87 1014.5
20260902052027 76 0 1.0 6.0 0.00 0.00 0.00 87 1014.5
20260902051852 76 282 2.0 6.0 0.00 0.00 0.00 88 1014.5
20260902051727 76 291 1.0 6.0 0.00 0.00 0.00 88 1014.5
20260902050452 76 288 2.0 7.0 0.00 0.00 0.00 88 1014.5
20260902050343 76 284 2.0 7.0 0.00 0.00 0.00 89 1014.5
20260902045753 76 308 2.0 7.0 0.00 0.00 0.00 89 1014.4
20260902045534 76 260 2.0 6.0 0.00 0.00 0.00 89 1014.4
20260902045140 76 298 1.0 5.0 0.00 0.00 0.00 90 1014.4
20260902045016 76 315 1.0 5.0 0.00 0.00 0.00 90 1014.4
20260902044904 76 281 1.0 6.0 0.00 0.00 0.00 90 1014.4
20260902043752 76 287 1.0 6.0 0.00 0.00 0.00 91 1014.4
20260902043637 76 319 1.0 5.0 0.00 0.00 0.00 91 1014.4
20260902043521 76 323 1.0 5.0 0.00 0.00 0.00 91 1014.4
20260902042437 76 291 2.0 6.0 0.00 0.00 0.00 92 1014.4
20260902042234 76 298 2.0 6.0 0.00 0.00 0.00 92 1014.4
20260902041847 76 278 1.0 5.0 0.00 0.00 0.00 92 1014.4
20260902040959 75 291 1.0 5.0 0.00 0.00 0.00 93 1014.4
20260902040835 75 296 1.0 5.0 0.00 0.00 0.00 93 1014.4
20260902040716 75 291 1.0 5.0 0.00 0.00 0.00 93 1014.4
20260902040321 75 322 1.0 5.0 0.00 0.00 0.00 94 1014.4
20260902035554 75 265 2.0 5.0 0.00 0.00 0.00 94 1014.3
20260902035353 75 289 2.0 4.0 0.00 0.00 0.00 95 1014.3
20260902034803 74 244 2.0 3.0 0.00 0.00 0.00 96 1014.3
20260902034548 74 287 2.0 3.0 0.00 0.00 0.00 96 1014.3
20260902034233 74 250 2.0 3.0 0.00 0.00 0.00 96 1014.4
20260902034112 74 268 1.0 3.0 0.00 0.00 0.00 96 1014.4
20260902033530 74 257 1.0 3.0 0.00 0.00 0.00 97 1014.4
20260902033315 74 244 1.0 3.0 0.00 0.00 0.00 97 1014.4
20260902033107 74 261 1.0 3.0 0.00 0.00 0.00 97 1014.4
20260902032850 74 261 1.0 3.0 0.00 0.00 0.00 97 1014.4
20260902032619 74 240 1.0 3.0 0.00 0.00 0.00 97 1014.3
20260902032230 74 260 1.0 2.0 0.00 0.00 0.00 97 1014.3
20260902031400 74 260 0.0 2.0 0.00 0.00 0.00 98 1014.3
20260902031246 74 260 0.0 2.0 0.00 0.00 0.00 98 1014.3
20260902031125 74 263 0.0 2.0 0.00 0.00 0.00 98 1014.3
20260902030002 74 298 0.0 0.0 0.00 0.00 0.00 98 1014.3
20260902025846 74 298 0.0 0.0 0.00 0.00 0.00 98 1014.3
20260902025720 74 298 0.0 1.0 0.00 0.00 0.00 98 1014.3
20260902025016 74 298 0.0 1.0 0.00 0.00 0.00 97 1014.3
20260902024525 74 298 0.0 1.0 0.00 0.00 0.00 97 1014.3
20260902024332 74 322 0.0 1.0 0.00 0.00 0.00 97 1014.3
20260902023759 74 322 0.0 1.0 0.00 0.00 0.00 97 1014.3
20260902023156 74 322 0.0 1.0 0.00 0.00 0.00 97 1014.3
20260902023039 74 322 0.0 0.0 0.00 0.00 0.00 97 1014.3
20260902022854 74 322 0.0 0.0 0.00 0.00 0.00 97 1014.3
20260902021827 74 322 0.0 0.0 0.00 0.00 0.00 97 1014.3
20260902021653 74 322 0.0 0.0 0.00 0.00 0.00 97 1014.3
20260902021530 74 322 0.0 2.0 0.00 0.00 0.00 97 1014.3
20260902020816 74 322 0.0 2.0 0.00 0.00 0.00 97 1014.3
20260902020341 74 322 1.0 2.0 0.00 0.00 0.00 97 1014.3
20260902020213 74 322 1.0 3.0 0.00 0.00 0.00 97 1014.3
20260902020049 74 322 1.0 3.0 0.00 0.00 0.00 97 1014.3
20260902015615 74 322 0.0 3.0 0.00 0.00 0.00 97 1014.3
20260902014744 74 328 0.0 3.0 0.00 0.00 0.00 96 1014.3
20260902014640 74 328 1.0 3.0 0.00 0.00 0.00 96 1014.3
20260902014500 74 328 1.0 4.0 0.00 0.00 0.00 96 1014.3
20260902013509 75 319 1.0 4.0 0.00 0.00 0.00 96 1014.3
20260902013302 75 319 1.0 4.0 0.00 0.00 0.00 96 1014.3
20260902012546 75 316 1.0 4.0 0.00 0.00 0.00 96 1014.3
20260902012052 75 320 1.0 5.0 0.00 0.00 0.00 96 1014.2
20260902011924 75 319 1.0 5.0 0.00 0.00 0.00 96 1014.2
20260902011806 75 319 1.0 5.0 0.00 0.00 0.00 96 1014.2
20260902010835 75 335 2.0 5.0 0.00 0.00 0.00 95 1014.2
20260902010618 76 339 2.0 5.0 0.00 0.00 0.00 95 1014.2
20260902010502 76 337 2.0 5.0 0.00 0.00 0.00 95 1014.2
20260902010223 76 336 2.0 5.0 0.00 0.00 0.00 95 1014.2
20260902010052 76 20 2.0 3.0 0.00 0.00 0.00 95 1014.1
20260902004847 76 323 0.0 3.0 0.00 0.00 0.00 94 1013.9
20260902004733 76 263 0.0 0.0 0.00 0.00 0.00 94 1013.9
20260902004609 76 261 0.0 0.0 0.00 0.00 0.00 94 1013.9
20260902004428 76 261 0.0 0.0 0.00 0.00 0.00 94 1013.9
20260902004129 76 261 0.0 0.0 0.00 0.00 0.00 93 1013.9
20260902003740 76 261 0.0 1.0 0.00 0.00 0.00 93 1013.8
20260902003441 76 261 0.0 1.0 0.00 0.00 0.00 93 1013.8
20260902002827 76 261 0.0 1.0 0.00 0.00 0.00 93 1013.8
20260902002718 76 261 0.0 1.0 0.00 0.00 0.00 93 1013.8
20260902002331 76 261 0.0 2.0 0.00 0.00 0.00 93 1013.8
20260902002144 76 261 0.0 2.0 0.00 0.00 0.00 93 1013.5
20260902002023 76 260 0.0 2.0 0.00 0.00 0.00 93 1013.5
20260902001908 76 256 0.0 2.0 0.00 0.00 0.00 93 1013.5
20260902000833 77 264 0.0 0.0 0.00 0.00 0.00 93 1013.5
20260902000725 77 265 0.0 0.0 0.00 0.00 0.00 93 1013.7
20260902000506 77 265 0.0 0.0 0.00 0.00 0.00 92 1013.7
20260902000131 77 265 0.0 0.0 0.00 0.00 0.00 93 1013.7
20260901235921 77 265 0.0 0.0 0.00 0.00 0.00 93 1013.7
20260901235751 77 265 0.0 0.0 0.00 0.00 0.00 93 1013.7
20260901235343 77 265 0.0 0.0 0.00 0.00 0.00 93 1013.7
20260901235238 77 265 0.0 0.0 0.00 0.00 0.00 92 1013.6
20260901235115 77 265 0.0 0.0 0.00 0.00 0.00 92 1013.6
20260901234453 77 271 0.0 2.0 0.00 0.00 0.00 92 1013.6
20260901234001 77 271 0.0 2.0 0.00 0.00 0.00 92 1013.6
20260901233835 77 267 0.0 2.0 0.00 0.00 0.00 92 1013.4
20260901233721 77 274 0.0 2.0 0.00 0.00 0.00 92 1013.4
20260901232625 77 257 0.0 2.0 0.00 0.00 0.00 92 1013.4
20260901232448 77 272 0.0 2.0 0.00 0.00 0.00 91 1013.4
20260901232341 77 257 0.0 2.0 0.00 0.00 0.00 91 1013.5
20260901232214 77 257 0.0 2.0 0.00 0.00 0.00 91 1013.5
20260901231210 77 260 0.0 2.0 0.00 0.00 0.00 91 1013.5
20260901231114 77 260 0.0 2.0 0.00 0.00 0.00 91 1013.5
20260901231007 77 260 0.0 2.0 0.00 0.00 0.00 91 1013.5
20260901230827 77 260 0.0 2.0 0.00 0.00 0.00 91 1013.7
20260901230322 77 265 0.0 2.0 0.00 0.00 0.00 91 1013.7
20260901225829 77 265 0.0 2.0 0.00 0.00 0.00 91 1013.7
20260901225558 77 272 0.0 2.0 0.00 0.00 0.00 91 1013.7
20260901225412 77 270 0.0 1.0 0.00 0.00 0.00 91 1013.6
20260901225113 77 270 0.0 1.0 0.00 0.00 0.00 91 1013.6
20260901224610 77 270 0.0 1.0 0.00 0.00 0.00 91 1013.6
20260901224344 77 270 0.0 1.0 0.00 0.00 0.00 91 1013.6
20260901224114 77 270 0.0 0.0 0.00 0.00 0.00 91 1013.6
20260901223945 77 270 0.0 0.0 0.00 0.00 0.00 90 1013.5
20260901223516 77 270 0.0 1.0 0.00 0.00 0.00 90 1013.5
20260901222934 77 270 0.0 2.0 0.00 0.00 0.00 90 1013.5
20260901222831 77 270 0.0 3.0 0.00 0.00 0.00 90 1013.5
20260901222709 77 268 0.0 3.0 0.00 0.00 0.00 90 1013.5
20260901221957 77 246 0.0 3.0 0.00 0.00 0.00 90 1013.4
20260901221558 77 240 0.0 2.0 0.00 0.00 0.00 90 1013.4
20260901221442 77 240 0.0 2.0 0.00 0.00 0.00 90 1013.4
20260901221320 77 219 0.0 1.0 0.00 0.00 0.00 89 1013.4
20260901220207 78 219 0.0 1.0 0.00 0.00 0.00 89 1013.4
20260901220100 78 219 0.0 1.0 0.00 0.00 0.00 89 1013.4
20260901215940 78 219 0.0 1.0 0.00 0.00 0.00 89 1013.4
20260901215549 78 219 0.0 2.0 0.00 0.00 0.00 89 1013.3
20260901214759 78 227 0.0 2.0 0.00 0.00 0.00 89 1013.3
20260901214653 78 227 0.0 2.0 0.00 0.00 0.00 89 1013.3
20260901214411 78 209 0.0 2.0 0.00 0.00 0.00 88 1013.3
20260901213418 78 240 0.0 2.0 0.00 0.00 0.00 88 1013.3
20260901213247 78 250 0.0 2.0 0.00 0.00 0.00 88 1013.3
20260901213138 78 248 0.0 1.0 0.00 0.00 0.00 88 1013.3
20260901212553 78 248 0.0 1.0 0.00 0.00 0.00 88 1013.3
20260901211953 78 248 0.0 3.0 0.00 0.00 0.00 88 1013.2
20260901211839 78 248 0.0 3.0 0.00 0.00 0.00 88 1013.2
20260901211735 78 248 0.0 3.0 0.00 0.00 0.00 88 1013.2
20260901211541 78 258 0.0 2.0 0.00 0.00 0.00 87 1013.2
20260901211325 78 258 0.0 2.0 0.00 0.00 0.00 87 1013.2
20260901210613 78 239 0.0 2.0 0.00 0.00 0.00 87 1013.1
20260901210504 78 239 0.0 2.0 0.00 0.00 0.00 87 1013.1
20260901210348 78 227 0.0 2.0 0.00 0.00 0.00 87 1013.1
20260901205226 78 217 0.0 1.0 0.00 0.00 0.00 87 1013.1
20260901205000 78 219 0.0 1.0 0.00 0.00 0.00 86 1013.1
20260901204606 78 220 0.0 0.0 0.00 0.00 0.00 86 1013.1
20260901204435 78 220 0.0 1.0 0.00 0.00 0.00 86 1013.1
20260901204224 78 219 0.0 1.0 0.00 0.00 0.00 86 1013.1
20260901204013 78 220 0.0 1.0 0.00 0.00 0.00 86 1013.1
20260901203806 78 220 0.0 1.0 0.00 0.00 0.00 86 1013.1
20260901203537 78 220 0.0 1.0 0.00 0.00 0.00 86 1013.1
20260901202423 79 209 0.0 2.0 0.00 0.00 0.00 85 1013.1
20260901202301 79 210 0.0 2.0 0.00 0.00 0.00 85 1013.1
20260901202146 79 189 0.0 2.0 0.00 0.00 0.00 85 1012.9
20260901200954 79 171 0.0 2.0 0.00 0.00 0.00 84 1012.9
20260901200836 79 168 0.0 2.0 0.00 0.00 0.00 84 1012.9
20260901200729 79 168 0.0 2.0 0.00 0.00 0.00 84 1012.7
20260901200452 79 203 0.0 2.0 0.00 0.00 0.00 84 1012.7
20260901200318 79 189 0.0 2.0 0.00 0.00 0.00 84 1012.7
20260901195619 79 200 0.0 2.0 0.00 0.00 0.00 83 1012.7
20260901195516 79 212 0.0 2.0 0.00 0.00 0.00 83 1012.7
20260901195351 79 216 0.0 2.0 0.00 0.00 0.00 83 1012.7
20260901194207 79 192 0.0 3.0 0.00 0.00 0.00 82 1012.7
20260901194058 79 210 0.0 3.0 0.00 0.00 0.00 82 1012.7
20260901192832 79 200 0.0 3.0 0.00 0.00 0.00 82 1012.6
20260901192714 80 216 0.0 3.0 0.00 0.00 0.00 82 1012.6
20260901192555 80 206 0.0 3.0 0.00 0.00 0.00 81 1012.6
20260901191430 80 209 0.0 1.0 0.00 0.00 0.00 81 1012.2
20260901191310 80 175 0.0 1.0 0.00 0.00 0.00 80 1012.2
20260901190255 80 192 0.0 2.0 0.00 0.00 0.00 80 1012.1
20260901185940 80 193 0.0 4.0 0.00 0.00 0.00 80 1012.1
20260901185837 80 195 0.0 4.0 0.00 0.00 0.00 80 1012.1
20260901185725 80 179 0.0 4.0 0.00 0.00 0.00 80 1012.1
20260901185533 80 178 1.0 4.0 0.00 0.00 0.00 79 1012.1
20260901184542 80 202 1.0 5.0 0.00 0.00 0.00 79 1011.8
20260901184311 80 181 1.0 5.0 0.00 0.00 0.00 79 1011.8
20260901183640 80 179 0.0 5.0 0.00 0.00 0.00 79 1011.9
20260901183223 80 189 0.0 5.0 0.00 0.00 0.00 79 1011.9
20260901183111 80 181 0.0 3.0 0.00 0.00 0.00 79 1011.7
20260901182953 80 181 0.0 3.0 0.00 0.00 0.00 79 1011.7
20260901182606 80 154 0.0 3.0 0.00 0.00 0.00 79 1011.7
20260901182356 80 196 0.0 3.0 0.00 0.00 0.00 79 1011.7
20260901181928 81 185 0.0 2.0 0.00 0.00 0.00 79 1011.7
20260901181741 81 171 0.0 2.0 0.00 0.00 0.00 78 1011.7
20260901181614 81 158 0.0 2.0 0.00 0.00 0.00 78 1011.3
20260901181500 81 195 0.0 2.0 0.00 0.00 0.00 78 1011.3
20260901181040 81 191 1.0 5.0 0.00 0.00 0.00 78 1011.3
20260901180743 81 179 1.0 5.0 0.00 0.00 0.00 78 1011.3
20260901180351 81 203 1.0 5.0 0.00 0.00 0.00 78 1011.3
20260901180244 81 199 1.0 5.0 0.00 0.00 0.00 77 1011.3
20260901180115 81 189 1.0 5.0 0.00 0.00 0.00 77 1011.4
20260901175316 81 198 0.0 3.0 0.00 0.00 0.00 76 1011.4
20260901175014 81 189 1.0 6.0 0.00 0.00 0.00 76 1011.4
20260901174859 81 158 0.0 6.0 0.00 0.00 0.00 76 1011.4
20260901174650 82 178 0.0 6.0 0.00 0.00 0.00 76 1011.4
20260901174526 82 178 0.0 6.0 0.00 0.00 0.00 75 1011.4
20260901174317 82 161 0.0 5.0 0.00 0.00 0.00 75 1011.4
20260901173629 82 222 0.0 5.0 0.00 0.00 0.00 75 1011.4
20260901173507 82 168 1.0 5.0 0.00 0.00 0.00 74 1011.4
20260901173356 82 199 0.0 5.0 0.00 0.00 0.00 74 1011.4
20260901173210 82 206 0.0 5.0 0.00 0.00 0.00 74 1011.4
20260901172946 82 119 0.0 3.0 0.00 0.00 0.00 73 1011.4
20260901172237 82 189 1.0 7.0 0.00 0.00 0.00 73 1011.4
20260901172120 82 216 1.0 7.0 0.00 0.00 0.00 73 1011.4
20260901172002 82 191 1.0 7.0 0.00 0.00 0.00 73 1011.4
20260901171830 82 157 1.0 7.0 0.00 0.00 0.00 73 1011.4
20260901171405 82 181 1.0 6.0 0.00 0.00 0.00 73 1011.4
20260901170816 83 191 1.0 3.0 0.00 0.00 0.00 72 1011.4
20260901170658 83 212 1.0 5.0 0.00 0.00 0.00 72 1011.4
20260901170542 83 148 0.0 5.0 0.00 0.00 0.00 72 1011.4
20260901170350 83 143 1.0 10.0 0.00 0.00 0.00 72 1011.4
20260901170133 83 145 1.0 10.0 0.00 0.00 0.00 72 1011.4
20260901165353 83 191 1.0 10.0 0.00 0.00 0.00 71 1011.4
20260901165223 84 112 1.0 6.0 0.00 0.00 0.00 71 1011.4
20260901165116 84 97 0.0 6.0 0.00 0.00 0.00 70 1011.4
20260901164039 84 134 1.0 7.0 0.00 0.00 0.00 70 1011.4
20260901163910 84 217 1.0 7.0 0.00 0.00 0.00 70 1011.4
20260901163749 85 164 1.0 7.0 0.00 0.00 0.00 69 1011.4
20260901163154 85 145 0.0 3.0 0.00 0.00 0.00 69 1011.4
20260901162622 85 127 0.0 6.0 0.00 0.00 0.00 67 1011.3
20260901162450 85 120 0.0 6.0 0.00 0.00 0.00 67 1011.3
20260901162343 86 136 0.0 6.0 0.00 0.00 0.00 67 1011.3
20260901162202 86 164 0.0 6.0 0.00 0.00 0.00 67 1011.3
20260901161404 86 208 0.0 5.0 0.00 0.00 0.00 66 1011.3
20260901161111 86 193 0.0 5.0 0.00 0.00 0.00 66 1011.2
20260901160955 86 192 0.0 5.0 0.00 0.00 0.00 65 1011.2
20260901155826 86 176 1.0 6.0 0.00 0.00 0.00 65 1011.2
20260901155656 86 162 1.0 5.0 0.00 0.00 0.00 65 1011.1
20260901155553 86 147 1.0 6.0 0.00 0.00 0.00 65 1011.1
20260901154414 86 176 2.0 8.0 0.00 0.00 0.00 65 1011.1
20260901154133 86 134 1.0 8.0 0.00 0.00 0.00 64 1011.2
20260901153032 87 130 1.0 7.0 0.00 0.00 0.00 64 1011.2
20260901152908 87 124 1.0 7.0 0.00 0.00 0.00 65 1011.2
20260901152708 87 185 1.0 6.0 0.00 0.00 0.00 65 1011.3
20260901152259 87 175 1.0 8.0 0.00 0.00 0.00 65 1011.3
20260901152042 87 138 1.0 8.0 0.00 0.00 0.00 66 1011.3
20260901151821 86 106 1.0 8.0 0.00 0.00 0.00 65 1011.3
20260901151518 86 143 1.0 8.0 0.00 0.00 0.00 66 1011.3
20260901151353 86 131 1.0 6.0 0.00 0.00 0.00 65 1011.3